RH
100 100 100 91 98 98 58 56 31 45 49 57 86 100 90 47 64 34 28 33 44 67 69 58 57 50 56 66 64 50 51 53 55 53 54 52 59 77 84 79 69 73 56
96 98 99 97 98 99 84 75 95 67 52 45 70 92 100 84 77 42 46 63 89 95 74 56 60 53 56 71 76 65 56 54 51 54 54 46 35 47 58 85 78 73 61
95 96 97 98 99 100 96 92 95 56 73 76 73 99 87 79 89 53 50 68 99 78 87 69 60 52 67 73 77 74 66 60 55 54 50 38 30 20 24 28 64 85 75
96 96 97 97 99 100 99 100 86 84 87 100 85 100 100 99 91 93 93 96 80 90 98 81 66 60 71 71 68 72 71 58 57 54 44 26 17 14 16 19 66 61 74
93 96 96 97 96 98 100 98 98 99 100 99 99 78 99 100 99 97 100 97 100 94 95 76 72 80 72 70 66 63 60 57 49 42 29 19 16 16 15 19 30 57 65
74 88 93 97 96 97 99 100 97 100 99 99 94 99 100 99 98 98 98 93 81 97 94 85 76 75 72 70 68 62 62 61 56 37 17 14 14 13 21 20 27 50 80
62 67 88 90 81 77 79 94 87 83 87 97 99 98 99 100 99 99 95 99 95 88 80 76 71 65 64 66 62 58 42 27 22 17 12 12 13 12 57 28 25 33 84
51 53 56 56 66 56 49 45 60 42 49 67 86 80 94 98 98 97 98 98 99 92 62 34 26 21 19 16 14 12 12 12 10 10 10 13 13 15 21 30 29 41 75
48 45 41 44 41 35 31 27 37 43 41 44 47 43 42 38 38 51 46 37 29 23 21 18 17 16 15 14 12 11 11 13 16 18 15 19 23 48 30 98 55 49 77
57 50 47 42 41 37 36 33 29 31 30 39 36 37 30 27 25 28 29 29 28 25 23 21 19 16 18 15 13 12 12 18 20 24 26 21 49 76 84 52 74 53 77
65 64 57 53 50 45 40 37 38 36 34 28 31 34 29 25 24 22 25 26 23 21 21 22 20 17 17 15 13 11 12 20 25 29 32 32 99 98 89 86 82 72 88
65 64 66 63 55 51 50 50 49 47 42 39 38 39 37 34 32 29 27 26 27 28 28 24 20 16 16 16 13 14 15 18 32 72 97 79 78 88 91 97 77 75 77
70 68 67 66 69 69 61 54 52 49 47 45 42 39 36 37 34 32 30 34 34 34 36 34 27 23 20 18 18 18 30 29 54 91 100 85 99 99 98 96 82 99 96
68 70 71 70 69 67 66 70 68 62 55 49 46 44 41 38 35 35 33 29 26 27 31 28 23 22 23 22 25 26 38 39 54 85 88 84 95 93 96 99 96 100 78
39 58 65 68 70 70 68 66 68 68 65 64 63 54 47 44 39 38 38 35 33 31 33 34 43 41 32 29 28 26 30 34 60 59 80 99 100 99 91 92 95 100 93
5 6 12 32 55 68 72 75 72 74 74 75 73 74 72 64 57 53 50 48 46 44 42 42 41 34 35 32 30 30 31 37 44 55 62 63 96 92 85 96 99 100 98
2 3 4 5 6 10 27 52 70 76 77 78 80 80 79 79 77 69 59 54 54 52 58 51 44 43 45 46 40 36 35 37 49 62 78 88 96 100 100 94 98 99 96
3 3 3 3 4 4 6 8 15 33 58 73 77 79 79 81 81 81 80 76 79 75 69 63 57 54 52 55 54 50 48 48 53 60 67 75 87 99 100 100 100 100 100
6 6 5 4 4 4 4 5 6 9 16 33 57 72 77 80 80 81 80 81 80 75 71 69 67 65 65 66 68 65 60 56 53 60 70 77 84 88 92 99 100 100 100
11 11 10 9 8 7 6 5 5 5 6 8 12 21 40 60 72 75 78 80 82 83 82 80 79 78 78 78 75 74 74 74 73 71 74 79 84 91 92 94 96 96 96
16 16 16 16 16 14 13 11 10 8 7 6 6 8 13 23 37 52 66 75 81 86 87 88 88 86 86 86 85 86 82 81 81 85 82 83 87 87 93 95 96 96 95
19 19 19 19 19 19 20 19 18 16 14 11 10 9 10 12 17 29 48 65 75 80 85 87 88 91 92 93 94 93 92 90 87 88 90 84 91 91 92 95 96 98 94
25 26 26 26 26 25 25 25 24 24 23 20 17 14 12 11 11 14 24 40 59 72 80 87 94 96 96 96 95 96 97 97 97 94 91 94 96 93 91 95 97 98 94
33 33 34 35 35 34 33 33 33 31 31 30 28 23 19 15 13 13 14 20 38 55 69 78 85 92 98 98 97 96 93 96 100 100 100 98 96 96 95 97 97 98 95
39 40 42 45 46 45 43 41 41 40 39 38 36 34 29 24 19 17 15 17 19 33 55 69 77 85 92 98 99 99 99 96 94 96 99 100 99 98 98 96 97 98 97
44 47 50 52 54 55 54 52 50 49 48 46 43 40 36 32 28 23 20 19 19 21 24 45 68 78 86 95 100 100 100 100 99 95 88 95 97 99 99 98 97 98 98
Wind_Speed
25 25 27 32 27 28 39 40 45 52 66 63 69 52 63 62 56 50 49 46 47 47 39 41 39 33 32 29 29 29 29 26 29 27 27 26 30 33 31 31 28 28 29
26 17 19 14 16 11 17 27 27 37 55 62 56 38 69 58 54 51 47 52 50 48 43 43 36 33 35 32 33 35 34 30 32 34 33 32 33 36 36 37 36 33 30
26 17 9 4 4 8 20 26 22 36 42 44 58 29 63 59 48 53 50 60 35 43 36 37 34 35 38 37 38 39 39 36 36 40 38 38 39 39 39 38 40 37 33
29 29 24 19 1 10 3 20 22 30 36 35 43 32 57 60 49 52 53 52 58 47 40 36 34 40 39 40 42 43 41 41 41 44 46 41 40 41 39 39 39 38 37
32 32 30 30 25 17 6 6 13 22 37 21 45 58 34 54 41 38 36 35 43 40 31 37 41 41 39 41 44 42 43 46 48 47 47 46 43 41 40 37 37 35 34
23 24 27 27 28 29 22 9 5 9 19 22 27 33 28 19 39 37 28 27 28 34 37 39 41 43 44 47 48 49 49 52 53 51 47 46 44 41 36 41 39 36 41
25 23 19 20 23 25 32 25 17 5 1 1 5 9 18 32 29 29 24 28 30 37 41 43 47 47 48 50 53 53 54 53 53 51 51 47 44 42 38 42 40 39 41
22 22 23 23 23 21 21 22 24 23 18 18 17 16 7 9 15 22 24 26 32 36 42 44 45 44 44 45 45 46 50 51 50 49 52 49 46 41 41 39 39 40 44
22 21 22 24 24 22 18 16 15 13 13 12 11 6 8 9 6 9 15 21 27 31 34 36 38 39 42 44 43 43 44 45 45 47 50 49 47 41 40 43 43 42 49
23 27 24 20 20 19 17 16 14 14 13 14 14 11 9 3 6 7 7 9 12 16 20 24 29 35 35 36 38 39 39 39 40 40 46 46 45 39 38 40 44 42 46
23 22 23 26 24 20 18 17 16 15 15 15 16 16 15 14 13 13 15 15 14 14 14 16 20 22 23 26 28 32 34 33 33 37 42 40 38 41 39 34 39 38 47
24 24 22 20 19 20 20 18 17 16 16 16 17 17 16 16 17 18 18 18 18 18 18 19 20 21 24 27 28 28 28 30 34 28 36 38 38 36 33 39 38 43 46
22 22 22 22 21 20 19 19 18 18 17 16 16 17 17 17 17 18 20 19 19 20 21 22 23 24 25 27 30 32 32 29 32 38 40 35 32 36 37 40 38 44 47
20 21 22 22 22 21 20 19 19 19 18 17 18 17 17 17 18 19 19 19 19 20 21 23 25 27 28 27 27 28 32 34 35 38 39 43 41 43 49 48 46 45 49
21 20 21 22 22 23 24 22 21 21 20 20 20 20 20 19 20 20 20 21 21 21 21 22 22 22 24 24 26 28 30 33 40 42 45 47 46 45 47 47 50 50 46
23 22 20 20 20 21 21 23 24 24 25 24 23 22 22 23 23 22 22 22 22 22 22 23 24 25 25 25 25 24 27 30 35 39 43 46 49 49 48 46 46 50 51
24 24 25 24 22 21 21 21 20 22 25 24 25 25 25 24 24 25 25 24 24 24 25 25 26 25 24 24 25 26 27 28 28 32 36 42 46 46 46 46 49 52 54
28 27 26 26 26 25 24 22 21 20 20 21 23 23 24 25 25 24 24 24 23 24 24 24 23 23 23 23 22 23 25 27 27 27 29 32 37 40 43 44 47 50 50
27 28 29 29 29 29 28 27 26 24 22 22 21 22 23 24 25 25 26 26 26 26 25 23 23 22 22 22 22 22 22 24 26 26 26 26 26 28 32 35 42 47 44
26 27 27 28 28 28 28 29 28 28 27 25 23 21 21 21 21 22 23 23 23 23 23 23 23 22 20 19 19 19 19 18 20 21 22 21 19 17 15 19 24 28 30
25 26 27 27 27 27 28 28 29 29 29 29 29 28 27 25 24 24 24 23 23 22 21 21 21 22 22 20 19 19 18 18 17 17 18 18 16 13 9 6 8 12 14
24 25 26 27 28 29 29 29 30 30 30 30 29 28 27 27 26 25 24 24 23 23 22 21 20 20 19 19 18 18 17 16 16 16 13 14 13 10 8 7 3 1 4
23 24 24 26 27 28 28 29 29 30 30 30 30 30 29 28 28 27 26 25 24 23 23 22 22 21 20 19 17 16 14 14 13 13 12 9 9 9 7 3 3 3 4
22 23 24 25 26 27 28 28 29 29 30 30 30 30 30 30 29 28 27 26 26 25 24 23 22 21 20 19 18 16 14 12 9 8 8 8 7 4 3 3 2 3 4
23 25 25 26 27 27 28 29 29 30 29 30 30 29 29 29 29 28 27 26 26 25 25 24 23 22 21 20 18 17 15 13 11 8 5 4 4 4 4 5 5 5 6
24 26 27 27 28 29 29 29 29 30 31 30 30 30 29 29 29 28 27 27 26 25 25 24 24 23 22 20 19 17 15 14 12 9 8 7 4 3 3 3 3 5 8
Wind_Direction
319 294 279 281 272 263 257 256 254 246 236 244 232 230 214 216 220 219 225 228 228 229 227 234 239 245 250 251 251 256 263 265 273 278 275 276 278 278 275 275 276 271 277
349 325 275 262 237 240 268 261 259 248 236 245 244 250 204 211 211 211 213 216 220 216 226 229 235 249 252 251 252 251 258 263 268 274 279 279 278 274 273 271 271 271 276
9 7 18 281 240 264 252 250 251 243 258 252 239 184 218 209 212 209 216 226 211 235 213 231 237 250 251 250 256 257 257 262 270 276 279 280 277 271 268 269 269 268 269
12 23 26 38 194 229 108 222 235 251 247 234 217 197 182 201 211 208 218 230 234 228 233 239 257 258 256 258 262 263 261 266 270 273 277 275 272 271 268 267 264 266 263
20 19 24 31 45 64 107 151 240 231 221 212 224 235 175 187 198 195 197 216 220 224 239 244 248 252 257 263 263 261 264 267 270 271 273 274 270 269 270 270 268 263 265
18 20 18 28 33 39 64 99 145 229 225 232 232 239 233 197 183 197 198 216 221 234 242 244 248 257 261 263 261 260 261 266 268 269 269 267 268 269 266 268 263 259 259
12 17 22 34 40 42 36 35 39 77 207 339 255 231 207 211 202 201 211 223 234 237 245 253 256 258 258 259 259 261 264 264 264 266 266 265 266 270 266 264 263 263 258
7 14 18 23 27 39 41 38 28 29 23 15 10 11 337 239 224 221 227 246 251 249 253 255 256 256 259 262 263 265 266 266 265 264 264 264 261 261 260 264 262 259 256
359 10 16 15 19 21 26 30 27 38 29 34 41 13 17 14 347 278 255 257 258 257 260 262 265 266 264 264 266 270 271 267 264 261 258 257 259 259 260 253 259 254 254
355 356 6 11 12 13 16 18 17 9 5 7 3 3 14 350 320 315 301 293 292 285 276 274 272 270 268 268 267 269 269 266 261 254 253 255 254 255 258 260 255 256 247
354 359 355 354 358 3 5 1 359 356 352 351 341 342 348 341 334 330 327 324 315 304 299 294 288 287 287 283 280 275 274 272 263 254 249 250 239 251 259 262 256 250 254
351 350 350 351 348 348 350 351 350 347 344 339 332 329 328 325 322 320 317 316 317 317 314 310 307 306 306 304 299 295 288 280 274 258 250 254 248 256 267 262 263 251 252
345 346 346 346 345 344 344 342 340 337 334 328 322 320 317 312 311 307 304 306 310 315 319 323 322 319 314 308 304 301 294 284 264 253 254 252 245 248 250 255 255 256 261
340 338 339 338 338 338 337 334 329 327 327 324 320 317 313 309 304 300 297 301 306 310 316 319 319 316 315 310 304 297 284 281 273 261 257 254 253 253 251 259 255 261 261
341 339 335 334 335 333 330 329 331 329 326 321 318 318 315 311 311 313 314 313 314 316 320 320 319 315 313 312 309 303 291 280 271 268 258 254 253 256 256 259 254 257 261
347 345 343 341 338 337 336 334 332 331 327 327 326 325 325 325 323 319 318 319 318 317 314 316 313 311 310 311 313 316 308 295 285 276 268 263 257 255 257 256 258 259 261
5 359 352 348 344 341 337 336 337 337 331 329 327 326 325 324 322 321 321 319 317 320 322 317 314 314 315 321 324 325 324 315 301 289 281 269 261 260 256 258 258 251 250
19 15 10 5 360 355 350 345 340 336 333 331 329 327 325 324 323 321 320 322 324 316 315 317 316 316 318 321 326 328 334 331 322 309 295 283 271 263 257 257 254 253 252
20 19 17 15 12 7 3 359 354 349 344 339 337 332 326 324 323 323 322 318 315 315 317 319 319 320 321 323 327 333 335 338 337 329 317 303 289 276 266 261 253 249 248
17 16 15 13 12 11 9 6 2 359 357 353 346 340 336 332 324 319 320 320 321 320 318 319 320 322 323 323 325 328 334 341 344 345 336 327 313 297 284 274 262 251 245
14 12 11 9 7 6 5 4 3 2 360 357 355 352 349 344 340 336 333 330 328 326 325 323 323 323 324 325 326 327 328 333 339 349 349 344 334 332 319 298 272 255 247
11 10 7 5 5 4 2 1 359 357 357 357 356 355 352 348 346 344 342 339 336 333 330 326 322 320 319 320 321 322 325 327 330 332 347 349 345 340 1 2 9 171 201
4 3 2 0 359 358 357 354 354 353 352 351 351 351 350 349 348 346 345 344 342 340 337 334 330 325 322 319 318 319 318 319 320 323 327 335 338 338 331 6 30 77 119
351 351 352 351 351 350 350 349 346 346 345 344 345 345 345 345 345 345 344 342 342 341 339 337 333 328 324 320 317 315 315 315 313 319 315 310 304 302 305 299 264 192 171
339 339 340 340 340 340 340 341 339 338 337 336 335 336 336 337 338 340 340 340 338 336 336 336 334 330 326 322 318 313 308 307 310 306 298 299 285 257 237 211 181 170 166
328 328 328 329 329 330 330 331 332 331 330 329 328 328 327 327 328 330 332 334 335 333 330 330 331 329 327 324 319 315 309 303 300 303 309 306 280 229 239 250 224 177 168